Ontario, CA

12:53 PM PDT on September 21, 2017 (GMT -0700)
Ontario International

Weather History for KONT - May, 2014

Change the Weather History Date:

Thursday, May 29, 2014

  Actual Average Record
Temperature  
Mean Temperature 74 °F 69 °F  
Max Temperature 88 °F 81 °F 99 °F (2002)
Min Temperature 59 °F 57 °F 49 °F (2010)
Degree Days  
Heating Degree Days 0 1  
Month to date heating degree days 14 37  
Since 1 July heating degree days 836 1530  
Cooling Degree Days 9 5  
Month to date cooling degree days 202 99  
Year to date cooling degree days 372 158  
Growing Degree Days 23 (Base 50)    
Moisture  
Dew Point 55 °F    
Average Humidity 59    
Maximum Humidity 90    
Minimum Humidity 27    
Precipitation  
Precipitation 0.00 in 0.00 in 0.04 in (1967)
Month to date precipitation 0.07 0.29  
Year to date precipitation 3.49 10.25  
Since 1 July precipitation 4.41  
Snow  
Snow 0.00 in - - ()
Month to date snowfall 0.0  
Year to date snowfall 0.0  
Snow Depth 0.00 in    
Sea Level Pressure  
Sea Level Pressure 29.86 in    
Wind  
Wind Speed 6 mph (WSW)    
Max Wind Speed 16 mph    
Max Gust Speed 21 mph    
Visibility 7 miles    
Events      
T = Trace of Precipitation, MM = Missing Value Source: NWS Daily Summary

Daily Weather History Graph

Daily Weather History Graph

Search for Another Location

Airport or City:

Trip Planner

Search our weather history database for the weather conditions in past years. The results will help you decide how hot, cold, wet, or windy it might be!

Date:

Astronomy

May. 29, 2014 Rise Set
Actual Time 5:41 AM PDT 7:54 PM PDT
Civil Twilight 5:12 AM PDT 8:23 PM PDT
Nautical Twilight 4:37 AM PDT 8:58 PM PDT
Astronomical Twilight 3:59 AM PDT 9:36 PM PDT
Moon 6:36 AM PDT (5/29) 8:51 PM PDT (5/29)
Length of Visible Light 15h 11m
Length of Day
14h 13m
New Moon, 1% of the Moon is Illuminated
May 29
New Moon
Jun 5
First Quarter
Jun 12
Full
Jun 19
Last Quarter
Jun 27
New

Hourly Weather History & Observations

Time (PDT) Temp. Heat Index Dew Point Humidity Pressure Visibility Wind Dir Wind Speed Gust Speed Precip Events Conditions
12:53 AM 62.6 °F - 57.2 °F 82% 29.89 in 10.0 mi Calm Calm - N/A   Partly Cloudy
1:53 AM 60.1 °F - 57.0 °F 90% 29.85 in 9.0 mi West 3.5 mph - N/A   Partly Cloudy
2:53 AM 60.1 °F - 57.0 °F 90% 29.84 in 6.0 mi West 4.6 mph - N/A   Partly Cloudy
3:53 AM 60.1 °F - 57.0 °F 90% 29.84 in 5.0 mi West 4.6 mph - N/A   Mostly Cloudy
4:53 AM 60.1 °F - 57.9 °F 93% 29.84 in 4.0 mi Calm Calm - N/A   Mostly Cloudy
5:53 AM 61.0 °F - 57.9 °F 90% 29.85 in 4.0 mi South 4.6 mph - N/A   Overcast
6:53 AM 62.1 °F - 57.9 °F 86% 29.86 in 3.0 mi SW 5.8 mph - N/A   Overcast
7:28 AM 62.1 °F - 57.9 °F 86% 29.90 in 3.0 mi SW 3.5 mph - N/A   Overcast
7:53 AM 63.0 °F - 57.9 °F 84% 29.88 in 3.0 mi SSW 3.5 mph - N/A   Haze
8:53 AM 64.0 °F - 57.9 °F 80% 29.89 in 4.0 mi Calm Calm - N/A   Haze
9:20 AM 66.0 °F - 57.0 °F 73% 29.91 in 4.0 mi NW 4.6 mph - N/A   Haze
9:44 AM 66.9 °F - 57.0 °F 70% 29.91 in 5.0 mi Variable 3.5 mph - N/A   Haze
9:53 AM 68.0 °F - 57.0 °F 68% 29.88 in 5.0 mi WSW 3.5 mph - N/A   Haze
10:53 AM 72.0 °F - 57.0 °F 59% 29.88 in 6.0 mi Variable 5.8 mph - N/A   Haze
11:53 AM 78.1 °F - 55.0 °F 45% 29.87 in 9.0 mi West 8.1 mph - N/A   Mostly Cloudy
12:53 PM 82.0 °F 81.3 °F 54.0 °F 38% 29.86 in 7.0 mi Variable 6.9 mph - N/A   Mostly Cloudy
1:53 PM 84.2 °F - 51.8 °F 33% 29.89 in 10.0 mi WSW 9.2 mph - N/A   Mostly Cloudy
3:53 PM 86.0 °F - 48.0 °F 27% 29.83 in 10.0 mi WSW 13.8 mph - N/A   Scattered Clouds
4:53 PM 84.9 °F - 48.0 °F 28% 29.81 in 10.0 mi West 12.7 mph - N/A   Mostly Cloudy
5:53 PM 82.9 °F - 48.0 °F 29% 29.81 in 10.0 mi West 16.1 mph - N/A   Scattered Clouds
6:53 PM 80.1 °F - 51.1 °F 36% 29.82 in 10.0 mi West 12.7 mph - N/A   Scattered Clouds
7:53 PM 73.0 °F - 54.0 °F 51% 29.85 in 10.0 mi WSW 12.7 mph - N/A   Partly Cloudy
8:53 PM 71.1 °F - 55.9 °F 59% 29.85 in 10.0 mi WSW 8.1 mph - N/A   Partly Cloudy
9:53 PM 68.0 °F - 55.9 °F 65% 29.86 in 10.0 mi WSW 5.8 mph - N/A   Partly Cloudy
10:53 PM 66.9 °F - 55.9 °F 68% 29.87 in 10.0 mi WSW 5.8 mph - N/A   Clear
11:53 PM 64.0 °F - 55.9 °F 75% 29.86 in 10.0 mi WSW 3.5 mph - N/A   Clear